Погода в Абано-Терме

Италия     45°21′36″N   11°47′42″E
темп.,
°C
ветер,
м/с
пор.,
м/с
влажн.,
%
обл.,
%
осадки,
мм/ч
давл.,
гПа
погр.,
м
4 июля, пн
пн423:00+23юв11610 0.0 101612
02:00+23св11620 0.0 101611
05:00+22ссв226929 0.0 101513
08:00+26ссв22645 0.0 1015206
11:00+33в223984 0.0 10141189
14:00+36в342592 0.0 10132314
17:00+35в55282 0.3 1011682
20:00+23ссв387367 1.0 1012228
5 июля, вт
вт523:00+20с4691100 3.4 1014113
02:00+20ссв228994 3.6 101442
05:00+19зюз22900 0.1 101414
08:00+22з23780 0.6 1014185
11:00+29з22470 0.0 1014769
14:00+34зсз01340 0.0 10131972
17:00+34всв22310 0.0 10122387
20:00+29всв58490 0.0 1012276
6 июля, ср
ср623:00+22ссв34720 0.0 101562
02:00+20св347565 0.3 101559
05:00+20ссв51089100 3.1 1017266
08:00+22ссв248376 5.0 1017189
11:00+29всв354525 0.0 10181229
14:00+31в65330 0.0 10171754
17:00+31вюв54310 0.0 10161695
20:00+27в34480 0.0 101567
7 июля, чт
чт723:00+23всв11600 0.0 101612
02:00+21ссв35773 0.3 101674
05:00+19ссв378531 0.1 1015140
08:00+22св386889 0.1 1016343
11:00+27св664330 0.0 10161247
14:00+28св444076 0.1 10151360
17:00+29св653896 0.0 10141734
20:00+20св51278100 0.8 1015374
8 июля, пт
пт823:00+19ссв2378100 0.0 101638
02:00+18с33848 0.0 101740
05:00+17ссв22870 0.0 101726
08:00+21з11710 0.0 1018186
11:00+26зюз224812 0.0 10181736
14:00+30юз133482 0.0 10162594
17:00+29вюв433573 0.0 10162221
20:00+23юв25621 0.4 101796